Карточка аэропорта UAKK

Внимание!
Информация на этой странице в стадии наполнения.
Если вы не увидели какой-то информации, или заметили неточность - пожалуйста сообщите нам!
Спасибо!
Команда RU-STAFF
Название аэропортаКараганда
Название аэропорта (англ.)Karaganda
Превышение1768 ft. (538.9 m.)
Координаты49°40.302', 73°20.118'
Высота перехода10000
Эшелон переходаby ATC
Коды ответчика0630-0637, 7220-7227
Зона ОрВДАстана РПИ (UACN)
Данные METARUAKK 220400Z 00000MPS CAVOK 17/08 Q1023 NOSIG RMK QFE720/0960
Проноз погоды (TAF)UAKK 211702Z 2118/2218 08005MPS 9999 SCT040 SCT100 TX23/2209Z TN05/2201Z TEMPO 2118/2203 VRB02MPS BECMG 2205/2207 04008MPS TEMPO 2205/2217 04013MPS
NOTAMshow/hide NOTAM
AWOS   TABLE

Информация о ВПП

ВПП Длина ВПП (м.) Покрытие Курс ВПП Частота ILS
053601Железобетон50109.9
233601Железобетон230111.7

Диспетчерские позиции




Спутниковое изображение